| time (UTC) | temp C | wind direction | speed KPH | gust KPH | rain 1hr cm | rain 24hr cm | rain mn cm | humidity % | barometer mb |
| 20260507120505 | 10 | 99 | 1.6 | 4.8 | 0.00 | 0.53 | 0.28 | 82 | 1014.5 |
| 20260507120005 | 10 | 108 | 1.6 | 4.8 | 0.00 | 0.53 | 0.28 | 84 | 1014.5 |
| 20260507115503 | 10 | 126 | 3.2 | 4.8 | 0.10 | 0.53 | 0.28 | 82 | 1014.6 |
| 20260507115002 | 11 | 113 | 0.0 | 1.6 | 0.20 | 0.53 | 0.28 | 85 | 1014.6 |
| 20260507114503 | 10 | 332 | 0.0 | 1.6 | 0.28 | 0.53 | 0.28 | 84 | 1014.6 |
| 20260507114003 | 10 | 331 | 0.0 | 4.8 | 0.28 | 0.53 | 0.28 | 86 | 1014.6 |
| 20260507113503 | 10 | 7 | 0.0 | 4.8 | 0.28 | 0.53 | 0.28 | 87 | 1014.6 |
| 20260507113003 | 10 | 311 | 1.6 | 4.8 | 0.28 | 0.53 | 0.28 | 86 | 1014.6 |
| 20260507112503 | 10 | 52 | 0.0 | 4.8 | 0.28 | 0.53 | 0.28 | 87 | 1014.6 |
| 20260507112003 | 10 | 30 | 0.0 | 4.8 | 0.28 | 0.56 | 0.28 | 88 | 1014.7 |
| 20260507111507 | 10 | 333 | 0.0 | 4.8 | 0.28 | 0.56 | 0.28 | 87 | 1014.6 |
| 20260507111002 | 10 | 8 | 1.6 | 4.8 | 0.28 | 0.56 | 0.28 | 86 | 1014.7 |
| 20260507110503 | 10 | 20 | 1.6 | 4.8 | 0.28 | 0.56 | 0.28 | 84 | 1014.8 |
| 20260507110003 | 10 | 34 | 0.0 | 3.2 | 0.25 | 0.53 | 0.25 | 85 | 1014.9 |
| 20260507105502 | 11 | 344 | 0.0 | 3.2 | 0.15 | 0.43 | 0.15 | 83 | 1014.8 |
| 20260507105003 | 11 | 326 | 0.0 | 4.8 | 0.05 | 0.33 | 0.05 | 80 | 1014.8 |
| 20260507104504 | 11 | 123 | 0.0 | 4.8 | 0.00 | 0.28 | 0.00 | 81 | 1014.8 |
| 20260507104003 | 12 | 122 | 0.0 | 3.2 | 0.00 | 0.28 | 0.00 | 79 | 1014.7 |
| 20260507103503 | 12 | 110 | 0.0 | 4.8 | 0.00 | 0.28 | 0.00 | 78 | 1014.6 |
| 20260507103003 | 12 | 76 | 1.6 | 4.8 | 0.00 | 0.28 | 0.00 | 80 | 1014.6 |
| 20260507102502 | 12 | 151 | 0.0 | 3.2 | 0.00 | 0.28 | 0.00 | 78 | 1014.7 |
| 20260507102002 | 13 | 18 | 1.6 | 3.2 | 0.00 | 0.28 | 0.00 | 76 | 1014.7 |
| 20260507101504 | 13 | 192 | 0.0 | 3.2 | 0.00 | 0.28 | 0.00 | 77 | 1014.6 |
| 20260507101002 | 13 | 18 | 0.0 | 3.2 | 0.00 | 0.28 | 0.00 | 78 | 1014.6 |
| 20260507100504 | 13 | 127 | 0.0 | 3.2 | 0.00 | 0.28 | 0.00 | 77 | 1014.6 |
| 20260507100004 | 13 | 137 | 0.0 | 4.8 | 0.00 | 0.28 | 0.00 | 78 | 1014.6 |
| 20260507095504 | 12 | 263 | 1.6 | 4.8 | 0.00 | 0.28 | 0.00 | 75 | 1014.7 |
| 20260507095003 | 12 | 207 | 1.6 | 4.8 | 0.00 | 0.28 | 0.00 | 78 | 1014.7 |
| 20260507094504 | 12 | 122 | 0.0 | 6.4 | 0.00 | 0.28 | 0.00 | 78 | 1014.6 |
| 20260507094003 | 12 | 131 | 1.6 | 8.0 | 0.00 | 0.28 | 0.00 | 81 | 1014.6 |
| 20260507093503 | 12 | 121 | 3.2 | 8.0 | 0.00 | 0.28 | 0.00 | 79 | 1014.5 |
| 20260507093004 | 11 | 94 | 0.0 | 3.2 | 0.00 | 0.28 | 0.00 | 80 | 1014.5 |
| 20260507092504 | 11 | 143 | 1.6 | 6.4 | 0.00 | 0.28 | 0.00 | 81 | 1014.5 |
| 20260507092005 | 11 | 242 | 1.6 | 6.4 | 0.00 | 0.28 | 0.00 | 80 | 1014.4 |
| 20260507091507 | 11 | 103 | 0.0 | 3.2 | 0.00 | 0.28 | 0.00 | 82 | 1014.4 |
| 20260507091004 | 11 | 257 | 1.6 | 3.2 | 0.00 | 0.28 | 0.00 | 80 | 1014.4 |
| 20260507090507 | 11 | 159 | 0.0 | 3.2 | 0.00 | 0.28 | 0.00 | 80 | 1014.3 |
| 20260507090004 | 11 | 136 | 0.0 | 3.2 | 0.00 | 0.28 | 0.00 | 79 | 1014.3 |
| 20260507085503 | 11 | 290 | 0.0 | 3.2 | 0.00 | 0.28 | 0.00 | 81 | 1014.4 |
| 20260507085003 | 11 | 300 | 0.0 | 3.2 | 0.00 | 0.28 | 0.00 | 80 | 1014.4 |
| 20260507084504 | 11 | 194 | 0.0 | 3.2 | 0.00 | 0.28 | 0.00 | 81 | 1014.3 |
| 20260507084003 | 11 | 150 | 0.0 | 3.2 | 0.00 | 0.28 | 0.00 | 82 | 1014.4 |
| 20260507083507 | 11 | 193 | 0.0 | 3.2 | 0.00 | 0.28 | 0.00 | 80 | 1014.4 |
| 20260507083004 | 11 | 155 | 0.0 | 3.2 | 0.00 | 0.28 | 0.00 | 81 | 1014.3 |
| 20260507082503 | 11 | 158 | 0.0 | 3.2 | 0.00 | 0.28 | 0.00 | 82 | 1014.4 |
| 20260507082004 | 11 | 143 | 0.0 | 1.6 | 0.00 | 0.28 | 0.00 | 82 | 1014.3 |
| 20260507081505 | 11 | 149 | 0.0 | 1.6 | 0.00 | 0.28 | 0.00 | 83 | 1014.3 |
| 20260507081003 | 11 | 154 | 0.0 | 1.6 | 0.00 | 0.28 | 0.00 | 83 | 1014.3 |
| 20260507080503 | 11 | 143 | 0.0 | 1.6 | 0.00 | 0.28 | 0.00 | 84 | 1014.3 |
| 20260507080005 | 10 | 143 | 0.0 | 1.6 | 0.00 | 0.28 | 0.00 | 83 | 1014.3 |
| 20260507075503 | 10 | 142 | 0.0 | 1.6 | 0.00 | 0.28 | 0.00 | 86 | 1014.3 |
| 20260507075003 | 10 | 143 | 0.0 | 1.6 | 0.00 | 0.28 | 0.00 | 87 | 1014.3 |
| 20260507074506 | 10 | 143 | 0.0 | 1.6 | 0.00 | 0.28 | 0.00 | 88 | 1014.2 |
| 20260507074003 | 10 | 143 | 0.0 | 1.6 | 0.00 | 0.28 | 0.00 | 90 | 1014.2 |
| 20260507073503 | 9 | 143 | 0.0 | 1.6 | 0.00 | 0.28 | 0.00 | 89 | 1014.1 |
| 20260507073003 | 9 | 143 | 0.0 | 1.6 | 0.00 | 0.28 | 0.00 | 90 | 1014.1 |
| 20260507072504 | 9 | 143 | 0.0 | 1.6 | 0.00 | 0.28 | 0.00 | 90 | 1014.1 |
| 20260507072002 | 9 | 143 | 0.0 | 1.6 | 0.00 | 0.28 | 0.00 | 90 | 1014.1 |
| 20260507071506 | 9 | 143 | 0.0 | 1.6 | 0.00 | 0.28 | 0.00 | 90 | 1014.1 |
| 20260507071003 | 9 | 143 | 0.0 | 1.6 | 0.00 | 0.28 | 0.00 | 91 | 1014.1 |
| 20260507070503 | 8 | 143 | 0.0 | 1.6 | 0.00 | 0.28 | 0.00 | 91 | 1014.1 |
| 20260507070008 | 8 | 143 | 0.0 | 1.6 | 0.00 | 0.28 | 0.00 | 91 | 1014.1 |
| 20260507065503 | 8 | 143 | 0.0 | 1.6 | 0.00 | 0.28 | 0.00 | 91 | 1014.1 |
| 20260507065004 | 8 | 143 | 0.0 | 1.6 | 0.00 | 0.28 | 0.00 | 92 | 1014.1 |
| 20260507064508 | 8 | 143 | 0.0 | 1.6 | 0.00 | 0.28 | 0.00 | 92 | 1014.0 |
| 20260507064003 | 8 | 143 | 0.0 | 1.6 | 0.00 | 0.28 | 0.00 | 92 | 1014.0 |
| 20260507063504 | 8 | 142 | 0.0 | 1.6 | 0.00 | 0.28 | 0.00 | 92 | 1013.9 |
| 20260507063005 | 8 | 142 | 0.0 | 1.6 | 0.00 | 0.28 | 0.00 | 93 | 1013.8 |
| 20260507062506 | 8 | 142 | 0.0 | 1.6 | 0.00 | 0.28 | 0.00 | 93 | 1013.9 |
| 20260507062002 | 8 | 142 | 0.0 | 1.6 | 0.00 | 0.28 | 0.00 | 93 | 1013.8 |
| 20260507061527 | 8 | 142 | 0.0 | 1.6 | 0.00 | 0.28 | 0.00 | 93 | 1013.8 |
| 20260507061008 | 7 | 142 | 0.0 | 1.6 | 0.00 | 0.28 | 0.00 | 93 | 1013.7 |
| 20260507060506 | 7 | 142 | 0.0 | 1.6 | 0.00 | 0.28 | 0.00 | 92 | 1013.7 |
| 20260507060017 | 7 | 141 | 0.0 | 1.6 | 0.00 | 0.28 | 0.00 | 93 | 1013.8 |
| 20260507055503 | 7 | 271 | 0.0 | 0.0 | 0.00 | 0.28 | 0.00 | 93 | 1013.8 |
| 20260507055003 | 7 | 271 | 0.0 | 0.0 | 0.00 | 0.28 | 0.00 | 93 | 1013.8 |
| 20260507054510 | 7 | 271 | 0.0 | 0.0 | 0.00 | 0.33 | 0.00 | 93 | 1013.8 |
| 20260507054004 | 7 | 271 | 0.0 | 1.6 | 0.00 | 0.36 | 0.00 | 93 | 1013.7 |
| 20260507053505 | 7 | 271 | 0.0 | 1.6 | 0.00 | 0.36 | 0.00 | 93 | 1013.6 |
| 20260507053012 | 7 | 271 | 0.0 | 1.6 | 0.00 | 0.38 | 0.00 | 93 | 1013.6 |
| 20260507052504 | 7 | 271 | 0.0 | 1.6 | 0.00 | 0.41 | 0.00 | 93 | 1013.6 |
| 20260507052005 | 7 | 271 | 0.0 | 1.6 | 0.00 | 0.43 | 0.00 | 93 | 1013.6 |
| 20260507051509 | 7 | 275 | 0.0 | 0.0 | 0.00 | 0.43 | 0.00 | 94 | 1013.5 |
| 20260507051004 | 7 | 275 | 0.0 | 0.0 | 0.00 | 0.43 | 0.00 | 94 | 1013.5 |
| 20260507050504 | 7 | 275 | 0.0 | 0.0 | 0.00 | 0.43 | 0.00 | 94 | 1013.5 |
| 20260507050011 | 7 | 275 | 0.0 | 0.0 | 0.00 | 0.46 | 0.00 | 94 | 1013.5 |
| 20260507045505 | 7 | 275 | 0.0 | 0.0 | 0.00 | 0.46 | 0.00 | 94 | 1013.5 |
| 20260507045006 | 7 | 275 | 0.0 | 0.0 | 0.00 | 0.48 | 0.00 | 94 | 1013.5 |
| 20260507044509 | 7 | 275 | 0.0 | 0.0 | 0.00 | 0.48 | 0.00 | 94 | 1013.4 |
| 20260507044005 | 7 | 275 | 0.0 | 0.0 | 0.00 | 0.48 | 0.00 | 94 | 1013.4 |
| 20260507043505 | 7 | 275 | 0.0 | 0.0 | 0.00 | 0.48 | 0.00 | 94 | 1013.3 |
| 20260507043014 | 7 | 275 | 0.0 | 0.0 | 0.00 | 0.51 | 0.00 | 94 | 1013.4 |
| 20260507042506 | 7 | 275 | 0.0 | 0.0 | 0.00 | 0.51 | 0.00 | 94 | 1013.4 |
| 20260507042005 | 7 | 275 | 0.0 | 0.0 | 0.00 | 0.51 | 0.00 | 93 | 1013.4 |
| 20260507041526 | 7 | 275 | 0.0 | 0.0 | 0.00 | 0.51 | 0.00 | 93 | 1013.4 |
| 20260507041005 | 7 | 275 | 0.0 | 0.0 | 0.00 | 0.51 | 0.00 | 93 | 1013.4 |
| 20260507040506 | 7 | 275 | 0.0 | 0.0 | 0.00 | 0.51 | 0.00 | 93 | 1013.4 |
| 20260507040011 | 7 | 275 | 0.0 | 0.0 | 0.00 | 0.51 | 0.00 | 93 | 1013.4 |
| 20260507035507 | 7 | 275 | 0.0 | 0.0 | 0.00 | 0.51 | 0.00 | 93 | 1013.4 |
| 20260507035005 | 7 | 275 | 0.0 | 0.0 | 0.00 | 0.51 | 0.00 | 93 | 1013.4 |
| 20260507034515 | 7 | 275 | 0.0 | 0.0 | 0.00 | 0.51 | 0.00 | 93 | 1013.3 |
| 20260507034005 | 7 | 275 | 0.0 | 0.0 | 0.00 | 0.51 | 0.00 | 93 | 1013.4 |
| 20260507033505 | 7 | 275 | 0.0 | 0.0 | 0.00 | 0.53 | 0.00 | 93 | 1013.4 |
| 20260507033014 | 7 | 275 | 0.0 | 1.6 | 0.00 | 0.53 | 0.00 | 93 | 1013.4 |
| 20260507032501 | 7 | 275 | 0.0 | 1.6 | 0.00 | 0.53 | 0.00 | 93 | 1013.3 |
| 20260507032001 | 7 | 274 | 0.0 | 1.6 | 0.00 | 0.53 | 0.00 | 93 | 1013.3 |
| 20260507031503 | 7 | 280 | 0.0 | 1.6 | 0.00 | 0.53 | 0.00 | 93 | 1013.4 |
| 20260507031002 | 7 | 281 | 0.0 | 1.6 | 0.00 | 0.53 | 0.00 | 93 | 1013.3 |
| 20260507030506 | 7 | 275 | 0.0 | 1.6 | 0.00 | 0.53 | 0.00 | 93 | 1013.3 |
| 20260507030003 | 7 | 257 | 0.0 | 1.6 | 0.00 | 0.53 | 0.00 | 93 | 1013.3 |
| 20260507025503 | 7 | 255 | 0.0 | 1.6 | 0.00 | 0.53 | 0.00 | 93 | 1013.4 |
| 20260507025002 | 7 | 255 | 0.0 | 1.6 | 0.00 | 0.53 | 0.00 | 94 | 1013.4 |
| 20260507024506 | 7 | 225 | 0.0 | 1.6 | 0.00 | 0.53 | 0.00 | 94 | 1013.3 |
| 20260507024005 | 7 | 179 | 0.0 | 0.0 | 0.00 | 0.56 | 0.00 | 94 | 1013.4 |
| 20260507023507 | 7 | 179 | 0.0 | 0.0 | 0.00 | 0.56 | 0.00 | 93 | 1013.3 |
| 20260507023015 | 7 | 179 | 0.0 | 0.0 | 0.00 | 0.58 | 0.00 | 93 | 1013.3 |
| 20260507022507 | 7 | 179 | 0.0 | 0.0 | 0.00 | 0.64 | 0.00 | 93 | 1013.3 |
| 20260507022010 | 7 | 179 | 0.0 | 0.0 | 0.00 | 0.64 | 0.00 | 93 | 1013.2 |
| 20260507021518 | 7 | 179 | 0.0 | 0.0 | 0.00 | 0.64 | 0.00 | 93 | 1013.2 |
| 20260507021007 | 7 | 179 | 0.0 | 0.0 | 0.00 | 0.64 | 0.00 | 93 | 1013.1 |
| 20260507020503 | 7 | 179 | 0.0 | 1.6 | 0.00 | 0.64 | 0.00 | 93 | 1013.0 |
| 20260507020003 | 7 | 179 | 0.0 | 1.6 | 0.00 | 0.64 | 0.00 | 93 | 1013.0 |
| 20260507015504 | 7 | 257 | 0.0 | 1.6 | 0.00 | 0.64 | 0.00 | 93 | 1013.1 |
| 20260507015002 | 7 | 258 | 0.0 | 1.6 | 0.00 | 0.64 | 0.00 | 93 | 1013.1 |
| 20260507014508 | 7 | 244 | 0.0 | 1.6 | 0.00 | 0.64 | 0.00 | 93 | 1013.1 |
| 20260507014003 | 7 | 252 | 0.0 | 1.6 | 0.00 | 0.64 | 0.00 | 93 | 1013.1 |
| 20260507013502 | 7 | 252 | 0.0 | 1.6 | 0.00 | 0.66 | 0.00 | 93 | 1013.0 |
| 20260507013016 | 7 | 272 | 0.0 | 1.6 | 0.00 | 0.66 | 0.00 | 93 | 1013.1 |
| 20260507012507 | 7 | 259 | 0.0 | 1.6 | 0.00 | 0.66 | 0.00 | 93 | 1013.0 |
| 20260507012006 | 7 | 248 | 0.0 | 1.6 | 0.00 | 0.66 | 0.00 | 93 | 1013.1 |
| 20260507011519 | 7 | 271 | 0.0 | 1.6 | 0.00 | 0.66 | 0.00 | 93 | 1013.1 |
| 20260507011005 | 7 | 242 | 0.0 | 1.6 | 0.00 | 0.66 | 0.00 | 93 | 1013.1 |
| 20260507010507 | 7 | 255 | 0.0 | 1.6 | 0.00 | 0.66 | 0.00 | 94 | 1013.1 |
| 20260507010018 | 7 | 159 | 0.0 | 1.6 | 0.00 | 0.66 | 0.00 | 94 | 1013.1 |
| 20260507005506 | 7 | 151 | 0.0 | 1.6 | 0.00 | 0.66 | 0.00 | 94 | 1013.1 |
| 20260507005007 | 7 | 245 | 0.0 | 1.6 | 0.00 | 0.66 | 0.00 | 94 | 1013.1 |
| 20260507004512 | 7 | 199 | 0.0 | 1.6 | 0.00 | 0.66 | 0.00 | 94 | 1013.1 |
| 20260507004003 | 7 | 261 | 0.0 | 1.6 | 0.00 | 0.66 | 0.00 | 94 | 1013.2 |
| 20260507003503 | 7 | 142 | 0.0 | 1.6 | 0.00 | 0.66 | 0.00 | 94 | 1013.2 |
| 20260507003004 | 7 | 179 | 0.0 | 1.6 | 0.00 | 0.66 | 0.00 | 94 | 1013.2 |
| 20260507002502 | 7 | 203 | 0.0 | 1.6 | 0.00 | 0.69 | 0.00 | 94 | 1013.3 |
| 20260507002003 | 7 | 236 | 0.0 | 1.6 | 0.00 | 0.69 | 0.00 | 94 | 1013.3 |
| 20260507001512 | 7 | 132 | 0.0 | 1.6 | 0.00 | 0.71 | 0.00 | 94 | 1013.3 |
| 20260507001005 | 7 | 132 | 0.0 | 1.6 | 0.00 | 0.74 | 0.00 | 94 | 1013.3 |
| 20260507000505 | 7 | 120 | 0.0 | 1.6 | 0.00 | 0.74 | 0.00 | 94 | 1013.4 |
| 20260507000022 | 7 | 144 | 0.0 | 1.6 | 0.00 | 0.76 | 0.00 | 94 | 1013.4 |
| 20260506235507 | 7 | 144 | 0.0 | 1.6 | 0.00 | 0.79 | 0.00 | 94 | 1013.3 |
| 20260506235006 | 7 | 147 | 0.0 | 1.6 | 0.00 | 0.81 | 0.00 | 94 | 1013.4 |
| 20260506234532 | 7 | 123 | 0.0 | 1.6 | 0.00 | 0.84 | 0.00 | 94 | 1013.4 |
| 20260506234007 | 7 | 143 | 0.0 | 1.6 | 0.00 | 0.84 | 0.00 | 94 | 1013.4 |
| 20260506233509 | 7 | 125 | 0.0 | 1.6 | 0.00 | 0.86 | 0.00 | 94 | 1013.4 |
| 20260506233022 | 7 | 139 | 0.0 | 1.6 | 0.00 | 0.89 | 0.00 | 94 | 1013.4 |
| 20260506232502 | 7 | 121 | 0.0 | 1.6 | 0.00 | 0.94 | 0.00 | 94 | 1013.4 |
| 20260506232002 | 7 | 245 | 0.0 | 1.6 | 0.00 | 0.94 | 0.00 | 94 | 1013.5 |
| 20260506231514 | 7 | 232 | 0.0 | 1.6 | 0.00 | 0.94 | 0.00 | 94 | 1013.5 |
| 20260506231003 | 7 | 262 | 0.0 | 1.6 | 0.00 | 0.97 | 0.00 | 94 | 1013.5 |
| 20260506230504 | 7 | 288 | 0.0 | 1.6 | 0.00 | 0.99 | 0.00 | 94 | 1013.4 |
| 20260506230011 | 7 | 127 | 0.0 | 1.6 | 0.00 | 1.02 | 0.00 | 94 | 1013.4 |
| 20260506225505 | 7 | 129 | 0.0 | 1.6 | 0.00 | 1.07 | 0.00 | 94 | 1013.4 |
| 20260506225006 | 7 | 135 | 0.0 | 1.6 | 0.00 | 1.12 | 0.00 | 94 | 1013.4 |
| 20260506224517 | 7 | 229 | 0.0 | 1.6 | 0.00 | 1.22 | 0.00 | 94 | 1013.4 |
| 20260506224007 | 7 | 207 | 0.0 | 1.6 | 0.00 | 1.24 | 0.00 | 94 | 1013.5 |
| 20260506223507 | 7 | 278 | 0.0 | 1.6 | 0.00 | 1.30 | 0.00 | 94 | 1013.5 |
| 20260506223034 | 7 | 279 | 0.0 | 1.6 | 0.00 | 1.32 | 0.00 | 94 | 1013.5 |
| 20260506222509 | 7 | 250 | 0.0 | 1.6 | 0.00 | 1.37 | 0.00 | 94 | 1013.5 |
| 20260506222008 | 7 | 240 | 0.0 | 1.6 | 0.00 | 1.37 | 0.00 | 94 | 1013.5 |
| 20260506221524 | 7 | 238 | 0.0 | 1.6 | 0.00 | 1.40 | 0.00 | 94 | 1013.5 |
| 20260506221010 | 7 | 241 | 0.0 | 1.6 | 0.00 | 1.40 | 0.00 | 94 | 1013.5 |
| 20260506220504 | 7 | 241 | 0.0 | 1.6 | 0.00 | 1.42 | 0.00 | 94 | 1013.5 |
| 20260506220006 | 7 | 224 | 0.0 | 1.6 | 0.00 | 1.47 | 0.00 | 94 | 1013.4 |
| 20260506215507 | 7 | 248 | 0.0 | 1.6 | 0.00 | 1.50 | 1.47 | 94 | 1013.4 |
| 20260506215008 | 7 | 122 | 0.0 | 1.6 | 0.00 | 1.57 | 1.47 | 94 | 1013.4 |
| 20260506214510 | 7 | 101 | 0.0 | 1.6 | 0.00 | 1.63 | 1.47 | 94 | 1013.3 |
| 20260506214008 | 7 | 203 | 0.0 | 1.6 | 0.00 | 1.68 | 1.47 | 94 | 1013.3 |
| 20260506213507 | 7 | 143 | 0.0 | 1.6 | 0.00 | 1.75 | 1.47 | 94 | 1013.4 |
| 20260506213014 | 7 | 142 | 0.0 | 1.6 | 0.00 | 1.88 | 1.47 | 94 | 1013.4 |
| 20260506212507 | 7 | 145 | 0.0 | 1.6 | 0.00 | 1.93 | 1.47 | 94 | 1013.3 |
| 20260506212009 | 7 | 127 | 0.0 | 3.2 | 0.00 | 1.96 | 1.47 | 94 | 1013.3 |
| 20260506211529 | 7 | 264 | 0.0 | 3.2 | 0.00 | 1.96 | 1.47 | 93 | 1013.2 |
| 20260506211010 | 7 | 286 | 0.0 | 1.6 | 0.00 | 1.96 | 1.47 | 93 | 1013.2 |
| 20260506210507 | 7 | 264 | 0.0 | 1.6 | 0.00 | 1.96 | 1.47 | 93 | 1013.2 |
| 20260506210025 | 7 | 130 | 0.0 | 1.6 | 0.00 | 1.96 | 1.47 | 93 | 1013.1 |
| 20260506205511 | 7 | 127 | 0.0 | 1.6 | 0.00 | 1.96 | 1.47 | 93 | 1013.2 |
| 20260506205007 | 7 | 142 | 0.0 | 1.6 | 0.00 | 1.96 | 1.47 | 93 | 1013.2 |
| 20260506204507 | 7 | 153 | 0.0 | 1.6 | 0.00 | 1.96 | 1.47 | 93 | 1013.0 |
| 20260506204003 | 7 | 137 | 0.0 | 1.6 | 0.00 | 1.96 | 1.47 | 93 | 1012.9 |
| 20260506203504 | 7 | 217 | 0.0 | 1.6 | 0.00 | 1.96 | 1.47 | 93 | 1012.9 |
| 20260506203026 | 7 | 111 | 0.0 | 1.6 | 0.00 | 1.96 | 1.47 | 93 | 1012.8 |
| 20260506202504 | 7 | 216 | 0.0 | 1.6 | 0.00 | 1.96 | 1.47 | 93 | 1012.8 |
| 20260506202007 | 7 | 135 | 0.0 | 1.6 | 0.00 | 1.96 | 1.47 | 93 | 1012.7 |
| 20260506201530 | 7 | 150 | 0.0 | 1.6 | 0.00 | 1.96 | 1.47 | 93 | 1012.7 |
| 20260506201010 | 7 | 145 | 0.0 | 1.6 | 0.00 | 1.96 | 1.47 | 93 | 1012.7 |
| 20260506200505 | 7 | 113 | 0.0 | 1.6 | 0.00 | 1.96 | 1.47 | 93 | 1012.7 |
| 20260506200024 | 7 | 185 | 0.0 | 0.0 | 0.00 | 1.96 | 1.47 | 93 | 1012.8 |
| 20260506195509 | 7 | 185 | 0.0 | 0.0 | 0.00 | 1.96 | 1.47 | 93 | 1012.7 |
| 20260506195008 | 7 | 185 | 0.0 | 0.0 | 0.00 | 1.96 | 1.47 | 93 | 1012.7 |
| 20260506194528 | 7 | 184 | 0.0 | 0.0 | 0.00 | 1.96 | 1.47 | 93 | 1012.7 |
| 20260506194008 | 7 | 184 | 0.0 | 0.0 | 0.00 | 1.96 | 1.47 | 93 | 1012.7 |
| 20260506193508 | 7 | 184 | 0.0 | 0.0 | 0.00 | 1.96 | 1.47 | 93 | 1012.6 |
| 20260506193024 | 7 | 191 | 0.0 | 1.6 | 0.00 | 1.96 | 1.47 | 93 | 1012.5 |
| 20260506192505 | 7 | 191 | 0.0 | 1.6 | 0.00 | 1.96 | 1.47 | 93 | 1012.4 |
| 20260506192008 | 7 | 239 | 0.0 | 1.6 | 0.00 | 1.96 | 1.47 | 92 | 1012.4 |
| 20260506191514 | 7 | 238 | 0.0 | 1.6 | 0.00 | 1.96 | 1.47 | 92 | 1012.3 |
| 20260506191007 | 7 | 179 | 0.0 | 1.6 | 0.00 | 1.96 | 1.47 | 92 | 1012.2 |
| 20260506190507 | 7 | 179 | 0.0 | 1.6 | 0.00 | 1.96 | 1.47 | 92 | 1012.2 |
| 20260506190015 | 7 | 134 | 0.0 | 1.6 | 0.00 | 1.96 | 1.47 | 92 | 1012.1 |
| 20260506185510 | 7 | 128 | 0.0 | 1.6 | 0.00 | 1.96 | 1.47 | 92 | 1012.0 |
| 20260506185014 | 7 | 278 | 0.0 | 1.6 | 0.05 | 1.96 | 1.47 | 92 | 1012.0 |
| 20260506184523 | 7 | 323 | 0.0 | 1.6 | 0.05 | 1.96 | 1.47 | 91 | 1012.0 |
| 20260506184014 | 8 | 86 | 0.0 | 3.2 | 0.13 | 1.96 | 1.47 | 91 | 1012.0 |
| 20260506183510 | 8 | 169 | 0.0 | 3.2 | 0.13 | 1.96 | 1.47 | 91 | 1011.9 |
| 20260506183003 | 8 | 193 | 0.0 | 3.2 | 0.13 | 1.96 | 1.47 | 91 | 1011.8 |
| 20260506182502 | 8 | 2 | 0.0 | 3.2 | 0.13 | 1.96 | 1.45 | 91 | 1011.8 |
| 20260506182003 | 8 | 240 | 0.0 | 3.2 | 0.13 | 1.96 | 1.45 | 90 | 1011.8 |
| 20260506181509 | 8 | 100 | 0.0 | 3.2 | 0.13 | 1.96 | 1.45 | 91 | 1011.8 |
| 20260506181006 | 8 | 132 | 0.0 | 3.2 | 0.15 | 1.96 | 1.45 | 90 | 1011.8 |
| 20260506180506 | 8 | 147 | 0.0 | 3.2 | 0.18 | 1.96 | 1.45 | 90 | 1011.8 |
| 20260506180014 | 8 | 144 | 0.0 | 3.2 | 0.18 | 1.96 | 1.45 | 90 | 1011.8 |
| 20260506175507 | 8 | 129 | 0.0 | 3.2 | 0.18 | 1.96 | 1.45 | 90 | 1011.7 |
| 20260506175007 | 8 | 276 | 0.0 | 6.4 | 0.13 | 1.91 | 1.40 | 90 | 1011.6 |
| 20260506174508 | 8 | 243 | 0.0 | 6.4 | 0.13 | 1.91 | 1.40 | 89 | 1011.5 |
| 20260506174002 | 9 | 156 | 0.0 | 3.2 | 0.05 | 1.83 | 1.32 | 89 | 1011.6 |
| 20260506173501 | 9 | 49 | 0.0 | 3.2 | 0.05 | 1.83 | 1.32 | 89 | 1011.5 |
| 20260506173004 | 9 | 255 | 0.0 | 3.2 | 0.05 | 1.83 | 1.32 | 89 | 1011.5 |
| 20260506172503 | 9 | 306 | 0.0 | 1.6 | 0.03 | 1.80 | 1.30 | 89 | 1011.4 |
| 20260506172003 | 9 | 144 | 0.0 | 4.8 | 0.03 | 1.80 | 1.30 | 88 | 1011.3 |
| 20260506171509 | 9 | 243 | 0.0 | 4.8 | 0.03 | 1.80 | 1.30 | 87 | 1011.3 |
| 20260506171006 | 9 | 326 | 0.0 | 4.8 | 0.00 | 1.78 | 1.30 | 86 | 1011.3 |
| 20260506170502 | 10 | 164 | 0.0 | 4.8 | 0.00 | 1.78 | 1.27 | 85 | 1011.3 |
| 20260506170010 | 10 | 174 | 0.0 | 4.8 | 0.00 | 1.78 | 1.27 | 84 | 1011.2 |
| 20260506165510 | 10 | 136 | 0.0 | 3.2 | 0.00 | 1.78 | 1.27 | 83 | 1011.2 |
| 20260506165008 | 10 | 110 | 0.0 | 6.4 | 0.00 | 1.78 | 1.27 | 83 | 1011.2 |
| 20260506164516 | 10 | 122 | 0.0 | 8.0 | 0.00 | 1.78 | 1.27 | 82 | 1011.2 |
| 20260506164011 | 10 | 137 | 1.6 | 8.0 | 0.00 | 1.78 | 1.27 | 83 | 1011.2 |
| 20260506163505 | 10 | 148 | 0.0 | 6.4 | 0.00 | 1.78 | 1.27 | 84 | 1011.2 |
| 20260506163021 | 10 | 135 | 0.0 | 6.4 | 0.00 | 1.78 | 1.27 | 84 | 1011.1 |
| 20260506162502 | 10 | 115 | 0.0 | 4.8 | 0.00 | 1.78 | 1.27 | 83 | 1011.2 |
| 20260506162002 | 10 | 122 | 0.0 | 6.4 | 0.00 | 1.78 | 1.27 | 83 | 1011.2 |
| 20260506161505 | 11 | 172 | 1.6 | 6.4 | 0.00 | 1.78 | 1.27 | 85 | 1011.2 |
| 20260506161002 | 10 | 105 | 1.6 | 4.8 | 0.00 | 1.78 | 1.27 | 85 | 1011.2 |
| 20260506160503 | 10 | 153 | 0.0 | 4.8 | 0.00 | 1.78 | 1.27 | 84 | 1011.2 |
| 20260506160008 | 10 | 66 | 1.6 | 4.8 | 0.00 | 1.78 | 1.27 | 83 | 1011.2 |
| 20260506155506 | 10 | 106 | 0.0 | 4.8 | 0.00 | 1.78 | 1.27 | 84 | 1011.2 |
| 20260506155003 | 10 | 34 | 0.0 | 4.8 | 0.00 | 1.78 | 1.27 | 85 | 1011.3 |
| 20260506154512 | 10 | 156 | 1.6 | 6.4 | 0.00 | 1.80 | 1.27 | 86 | 1011.3 |
| 20260506154006 | 9 | 196 | 1.6 | 6.4 | 0.00 | 1.83 | 1.27 | 86 | 1011.3 |
| 20260506153506 | 9 | 126 | 1.6 | 4.8 | 0.00 | 1.83 | 1.27 | 87 | 1011.3 |
| 20260506153014 | 8 | 141 | 0.0 | 4.8 | 0.00 | 1.83 | 1.27 | 87 | 1011.3 |
| 20260506152506 | 8 | 148 | 1.6 | 4.8 | 0.00 | 1.83 | 1.27 | 87 | 1011.3 |
| 20260506152007 | 8 | 125 | 1.6 | 6.4 | 0.00 | 1.83 | 1.27 | 87 | 1011.4 |
| 20260506151520 | 8 | 195 | 1.6 | 6.4 | 0.00 | 1.83 | 1.27 | 87 | 1011.3 |
| 20260506151010 | 8 | 150 | 1.6 | 3.2 | 0.00 | 1.83 | 1.27 | 88 | 1011.3 |
| 20260506150503 | 8 | 283 | 0.0 | 6.4 | 0.00 | 1.83 | 1.27 | 88 | 1011.3 |
| 20260506150004 | 8 | 316 | 0.0 | 8.0 | 0.00 | 1.83 | 1.27 | 88 | 1011.3 |
| 20260506145503 | 8 | 136 | 1.6 | 8.0 | 0.00 | 1.83 | 1.27 | 87 | 1011.3 |
| 20260506145003 | 8 | 116 | 1.6 | 8.0 | 0.00 | 1.83 | 1.27 | 86 | 1011.3 |
| 20260506144506 | 8 | 293 | 1.6 | 8.0 | 0.00 | 1.80 | 1.24 | 86 | 1011.3 |
| 20260506144005 | 9 | 179 | 1.6 | 6.4 | 0.00 | 1.83 | 1.24 | 85 | 1011.3 |
| 20260506143506 | 9 | 153 | 1.6 | 6.4 | 0.00 | 1.83 | 1.24 | 84 | 1011.3 |
| 20260506143024 | 10 | 147 | 1.6 | 6.4 | 0.00 | 1.83 | 1.24 | 82 | 1011.3 |
| 20260506142506 | 10 | 123 | 1.6 | 9.7 | 0.00 | 1.88 | 1.24 | 80 | 1011.3 |
| 20260506142008 | 11 | 233 | 1.6 | 14.5 | 0.00 | 1.96 | 1.24 | 78 | 1011.2 |
| 20260506141516 | 11 | 134 | 1.6 | 14.5 | 0.00 | 1.96 | 1.24 | 77 | 1011.1 |
| 20260506141009 | 11 | 116 | 1.6 | 4.8 | 0.00 | 1.98 | 1.24 | 78 | 1011.0 |
| 20260506140507 | 11 | 119 | 1.6 | 4.8 | 0.00 | 2.01 | 1.24 | 77 | 1011.1 |
| 20260506140024 | 11 | 206 | 1.6 | 9.7 | 0.00 | 2.01 | 1.24 | 78 | 1011.0 |
| 20260506135509 | 12 | 306 | 1.6 | 9.7 | 0.00 | 2.01 | 1.24 | 74 | 1011.0 |
| 20260506135009 | 12 | 324 | 1.6 | 6.4 | 0.00 | 2.01 | 1.24 | 76 | 1011.0 |
| 20260506134504 | 12 | 160 | 3.2 | 6.4 | 0.00 | 2.01 | 1.24 | 78 | 1011.0 |
| 20260506134006 | 12 | 136 | 1.6 | 6.4 | 0.03 | 2.01 | 1.24 | 80 | 1011.1 |
| 20260506133503 | 12 | 253 | 1.6 | 6.4 | 0.03 | 2.01 | 1.24 | 82 | 1011.1 |
| 20260506133010 | 11 | 124 | 0.0 | 6.4 | 0.03 | 2.01 | 1.24 | 83 | 1011.1 |
| 20260506132509 | 11 | 138 | 1.6 | 4.8 | 0.03 | 2.01 | 1.24 | 86 | 1011.1 |
| 20260506132010 | 10 | 35 | 0.0 | 6.4 | 0.03 | 2.01 | 1.24 | 83 | 1011.1 |
| 20260506131515 | 10 | 15 | 0.0 | 8.0 | 0.03 | 2.01 | 1.24 | 87 | 1011.2 |
| 20260506131010 | 10 | 184 | 1.6 | 8.0 | 0.03 | 2.01 | 1.24 | 87 | 1011.2 |
| 20260506130511 | 9 | 146 | 3.2 | 6.4 | 0.03 | 2.01 | 1.24 | 86 | 1011.3 |
| 20260506130022 | 9 | 105 | 0.0 | 8.0 | 0.03 | 2.01 | 1.24 | 87 | 1011.3 |
| 20260506125507 | 9 | 117 | 3.2 | 8.0 | 0.03 | 2.01 | 1.24 | 86 | 1011.3 |
| 20260506125007 | 10 | 186 | 1.6 | 8.0 | 0.00 | 1.98 | 1.22 | 83 | 1011.2 |
| 20260506124524 | 10 | 143 | 1.6 | 11.3 | 0.00 | 1.98 | 1.22 | 81 | 1011.3 |
| 20260506124010 | 11 | 65 | 3.2 | 11.3 | 0.00 | 1.96 | 1.22 | 77 | 1011.2 |
| 20260506123510 | 12 | 290 | 1.6 | 6.4 | 0.00 | 1.96 | 1.22 | 74 | 1011.0 |
| 20260506123031 | 12 | 79 | 0.0 | 6.4 | 0.00 | 1.96 | 1.22 | 74 | 1011.0 |
| 20260506122503 | 12 | 162 | 1.6 | 8.0 | 0.00 | 1.96 | 1.22 | 77 | 1011.0 |
| 20260506122002 | 12 | 152 | 3.2 | 8.0 | 0.00 | 1.96 | 1.22 | 77 | 1011.0 |
| 20260506121518 | 11 | 128 | 1.6 | 6.4 | 0.00 | 1.96 | 1.22 | 78 | 1011.0 |
| 20260506121007 | 11 | 289 | 1.6 | 6.4 | 0.00 | 1.96 | 1.22 | 78 | 1011.1 |